Conroe, Texas, United States (77301)
Lat: 30.31N, Lon: 95.46W
Wx Zone: TXZ199
Local Info
Past Weather Observations for Today

NOTE: This archive is for the closest National Weather Service station to Conroe. Information may differ from the station used for current weather conditions.

Click here for Long-term Archive

Time Weather Temperature Dewpoint Humidity Pressure Winds Precip Visibility
19:53
Mostly Cloudy
81°F / 27°C 72°F / 22°C 74% 29.98 in
(1015 mb)
SE 5.8 mph
(SE 9 kph)
- 10SM
18:53
Overcast
82°F / 28°C 72°F / 22°C 70% 29.98 in
(1015 mb)
SE 5.8 mph
(SE 9 kph)
- 10SM
17:53
Overcast
84°F / 29°C 72°F / 22°C 66% 29.98 in
(1015 mb)
SE 5.8 mph
(SE 9 kph)
- 10SM
16:53
Mostly Cloudy
90°F / 32°C 72°F / 22°C 55% 29.95 in
(1014 mb)
SE 15 mph
(SE 24 kph)
- 10SM
15:53
Overcast
91°F / 33°C 64°F / 18°C 41% 29.95 in
(1014 mb)
Variable 5.8 mph
(Variable 9 kph)
- 9SM
14:53
Clear
Hazy
93°F / 34°C 64°F / 18°C 39% 29.95 in
(1014 mb)
N 3.5 mph
(N 6 kph)
- 6SM
13:53
Partly Cloudy
93°F / 34°C 63°F / 17°C 36% 29.98 in
(1015 mb)
Variable 5.8 mph
(Variable 9 kph)
- 10SM
12:53
Partly Cloudy
91°F / 33°C 64°F / 18°C 41% 30.01 in
(1016 mb)
NNE 10.4 mph
(NNE 17 kph)
- 10SM
11:53
Partly Cloudy
91°F / 33°C 64°F / 18°C 41% 30.01 in
(1016 mb)
Variable 5.8 mph
(Variable 9 kph)
- 10SM
10:53
Partly Cloudy
90°F / 32°C 64°F / 18°C 43% 30.04 in
(1017 mb)
ESE 8.1 mph
(ESE 13 kph)
- 10SM
09:53
Clear
88°F / 31°C 68°F / 20°C 52% 30.04 in
(1017 mb)
Variable 4.6 mph
(Variable 7 kph)
- 10SM
08:53
Clear
84°F / 29°C 70°F / 21°C 62% 30.04 in
(1017 mb)
NE 6.9 mph
(NE 11 kph)
- 10SM
07:53
Clear
81°F / 27°C 72°F / 22°C 74% 30.04 in
(1017 mb)
Variable 4.6 mph
(Variable 7 kph)
- 10SM
06:53
Clear
73°F / 23°C 72°F / 22°C 94% 30.01 in
(1016 mb)
N 5.8 mph
(N 9 kph)
- 8SM
05:53
Clear
72°F / 22°C 70°F / 21°C 94% 30.01 in
(1016 mb)
NNW 3.5 mph
(NNW 6 kph)
- 8SM
04:53
Clear
70°F / 21°C 70°F / 21°C 100% 30.01 in
(1016 mb)
Calm - 8SM
03:53
Clear
72°F / 22°C 70°F / 21°C 94% 29.98 in
(1015 mb)
Calm - 8SM
02:53
Clear
72°F / 22°C 70°F / 21°C 94% 29.98 in
(1015 mb)
Calm - 9SM
01:53
Clear
72°F / 22°C 70°F / 21°C 94% 30.01 in
(1016 mb)
Calm - 9SM
00:53
Clear
73°F / 23°C 70°F / 21°C 89% 30.01 in
(1016 mb)
Calm - 10SM
Time Weather Temperature Dewpoint Humidity Pressure Winds Precip Visibility


Weather for websites

WeatherForYou.com, LLC is not responsible for any damages or problems caused by this service. Current weather conditions are obtained from the closest station including government and personal stations which may have varying degrees of accuracy. Weather forecasts are derived from the NOAA NDFD. Like all things, this site belongs to Jesus Christ... He just trusts me to maintain it. If you have any questions or comments email webmaster@weatherforyou.com

Copyright © 2014, WeatherForYou.com LLC. All rights reserved.